Tracking 35275 objects as of 9-Sep-2026
HD Live streaming from Space Station
objects crossing your sky now

FREGAT DEB

Track FREGAT DEB now!
10-day predictions


NORAD ID: 45979
Int'l Code: 2011-037GL
Launch date: July 18, 2011
Source: Commonwealth of Independent States (former USSR) (CIS)
Launch site: TYURATAM MISSILE AND SPACE COMPLEX (TTMTR)

Note: This is SATELLITE DEBRIS
Your satellite tracking list
Your tracking list is empty




NASA's NSSDC Master Catalog

Two Line Element Set (TLE):
1 45979U 11037GL  26249.66817717  .00000471  00000-0  94662-3 0  9994
2 45979  51.5236  15.0355 1894205 223.4661 120.0504 10.63288055237619
Source of the keplerian elements: AFSPC